[Date Prev][Date Next][Thread Prev][Thread Next] - [Date Index][Thread Index][Author Index]
2 Line ISS Keps 6-27
- Subject: [sarex] 2 Line ISS Keps 6-27
- From: "Dave Larsen PhD" <doc@xxxxxxxxxxx>
- Date: Fri, 27 Jun 2003 04:06:55 -0700
ISS
1 25544U 98067A 03178.14681713 .00013908 00000-0 17516-3 0 1604
2 25544 51.6329 330.1514 0007256 304.7996 39.8114 15.59909093262559
----
Via the sarex mailing list at AMSAT.ORG courtesy of AMSAT-NA.
To unsubscribe, send "unsubscribe sarex" to Majordomo@amsat.org
AMSAT Home